| time (UTC) | temp C | wind direction | speed KPH | gust KPH | rain 1hr cm | rain 24hr cm | rain mn cm | humidity % | barometer mb |
| 20260507011755 | 23 | 95 | 1.6 | 4.8 | 0.00 | 0.00 | 0.00 | 86 | 1017.6 |
| 20260507011248 | 23 | 96 | 1.6 | 8.0 | 0.00 | 0.00 | 0.00 | 86 | 1017.6 |
| 20260507010737 | 23 | 78 | 3.2 | 8.0 | 0.00 | 0.00 | 0.00 | 87 | 1017.6 |
| 20260507010231 | 23 | 76 | 3.2 | 4.8 | 0.00 | 0.00 | 0.00 | 87 | 1017.6 |
| 20260507005726 | 23 | 70 | 3.2 | 4.8 | 0.00 | 0.00 | 0.00 | 87 | 1017.7 |
| 20260507005221 | 23 | 71 | 1.6 | 4.8 | 0.00 | 0.00 | 0.00 | 87 | 1017.7 |
| 20260507004714 | 23 | 81 | 1.6 | 4.8 | 0.00 | 0.00 | 0.00 | 87 | 1017.7 |
| 20260507004208 | 23 | 89 | 1.6 | 4.8 | 0.00 | 0.00 | 0.00 | 87 | 1017.7 |
| 20260507003923 | 23 | 85 | 1.6 | 3.2 | 0.00 | 0.00 | 0.00 | 87 | 1017.7 |
| 20260507003158 | 23 | 85 | 1.6 | 3.2 | 0.00 | 0.00 | 0.00 | 87 | 1017.8 |
| 20260507002910 | 23 | 85 | 0.0 | 3.2 | 0.00 | 0.00 | 0.00 | 86 | 1017.8 |
| 20260507002143 | 24 | 85 | 0.0 | 4.8 | 0.00 | 0.00 | 0.00 | 86 | 1017.8 |
| 20260507001639 | 24 | 85 | 1.6 | 4.8 | 0.00 | 0.00 | 0.00 | 86 | 1017.8 |
| 20260507001149 | 24 | 86 | 1.6 | 4.8 | 0.00 | 0.00 | 0.00 | 85 | 1017.9 |
| 20260507000635 | 24 | 90 | 0.0 | 3.2 | 0.00 | 0.00 | 0.00 | 85 | 1018.0 |
| 20260507000133 | 25 | 91 | 1.6 | 3.2 | 0.00 | 0.00 | 0.00 | 85 | 1017.9 |
| 20260506235633 | 25 | 91 | 1.6 | 3.2 | 0.00 | 0.00 | 0.00 | 84 | 1017.8 |
| 20260506235134 | 25 | 91 | 1.6 | 3.2 | 0.00 | 0.00 | 0.00 | 84 | 1017.8 |
| 20260506234633 | 25 | 91 | 1.6 | 3.2 | 0.00 | 0.00 | 0.00 | 84 | 1017.8 |
| 20260506234350 | 25 | 91 | 1.6 | 4.8 | 0.00 | 0.00 | 0.00 | 83 | 1017.8 |
| 20260506233628 | 25 | 91 | 3.2 | 4.8 | 0.00 | 0.00 | 0.00 | 83 | 1017.8 |
| 20260506233129 | 25 | 85 | 1.6 | 4.8 | 0.00 | 0.00 | 0.00 | 82 | 1017.8 |
| 20260506232642 | 25 | 75 | 1.6 | 3.2 | 0.00 | 0.00 | 0.00 | 83 | 1017.9 |
| 20260506232129 | 25 | 75 | 1.6 | 4.8 | 0.00 | 0.00 | 0.00 | 83 | 1018.0 |
| 20260506231851 | 25 | 75 | 1.6 | 4.8 | 0.00 | 0.00 | 0.00 | 83 | 1017.9 |
| 20260506231129 | 25 | 84 | 1.6 | 4.8 | 0.00 | 0.00 | 0.00 | 83 | 1017.8 |
| 20260506230851 | 25 | 86 | 3.2 | 4.8 | 0.00 | 0.00 | 0.00 | 83 | 1017.8 |
| 20260506230127 | 25 | 89 | 1.6 | 4.8 | 0.00 | 0.00 | 0.00 | 83 | 1017.8 |
| 20260506225621 | 26 | 89 | 1.6 | 3.2 | 0.00 | 0.00 | 0.00 | 82 | 1017.7 |
| 20260506225114 | 26 | 89 | 1.6 | 3.2 | 0.00 | 0.00 | 0.00 | 82 | 1017.7 |
| 20260506224619 | 26 | 89 | 1.6 | 4.8 | 0.00 | 0.00 | 0.00 | 82 | 1017.7 |
| 20260506224114 | 26 | 89 | 1.6 | 4.8 | 0.00 | 0.00 | 0.00 | 82 | 1017.7 |
| 20260506223611 | 26 | 83 | 1.6 | 4.8 | 0.00 | 0.00 | 0.00 | 82 | 1017.7 |
| 20260506223112 | 26 | 92 | 1.6 | 3.2 | 0.00 | 0.00 | 0.00 | 82 | 1017.7 |
| 20260506222608 | 26 | 92 | 0.0 | 3.2 | 0.00 | 0.00 | 0.00 | 81 | 1017.7 |
| 20260506222107 | 27 | 92 | 0.0 | 0.0 | 0.00 | 0.00 | 0.00 | 80 | 1017.8 |
| 20260506221607 | 27 | 129 | 0.0 | 0.0 | 0.00 | 0.00 | 0.00 | 79 | 1017.7 |
| 20260506221107 | 27 | 129 | 0.0 | 1.6 | 0.00 | 0.00 | 0.00 | 78 | 1017.7 |
| 20260506220619 | 27 | 129 | 0.0 | 1.6 | 0.00 | 0.00 | 0.00 | 79 | 1017.7 |
| 20260506220327 | 27 | 129 | 0.0 | 1.6 | 0.00 | 0.00 | 0.00 | 79 | 1017.7 |
| 20260506215607 | 27 | 134 | 0.0 | 0.0 | 0.00 | 0.00 | 0.00 | 79 | 1017.8 |
| 20260506215102 | 27 | 134 | 0.0 | 0.0 | 0.00 | 0.00 | 0.00 | 79 | 1017.8 |
| 20260506214607 | 27 | 134 | 0.0 | 1.6 | 0.00 | 0.00 | 0.00 | 78 | 1017.7 |
| 20260506214102 | 27 | 134 | 0.0 | 1.6 | 0.00 | 0.00 | 0.00 | 78 | 1017.6 |
| 20260506213602 | 28 | 142 | 0.0 | 1.6 | 0.00 | 0.00 | 0.00 | 77 | 1017.5 |
| 20260506213102 | 28 | 143 | 0.0 | 1.6 | 0.00 | 0.00 | 0.00 | 76 | 1017.6 |
| 20260506212602 | 28 | 143 | 0.0 | 3.2 | 0.00 | 0.00 | 0.00 | 75 | 1017.5 |
| 20260506212104 | 28 | 143 | 0.0 | 3.2 | 0.00 | 0.00 | 0.00 | 74 | 1017.6 |
| 20260506211602 | 28 | 143 | 0.0 | 3.2 | 0.00 | 0.00 | 0.00 | 74 | 1017.5 |
| 20260506211103 | 29 | 143 | 0.0 | 1.6 | 0.00 | 0.00 | 0.00 | 73 | 1017.5 |
| 20260506210819 | 29 | 143 | 0.0 | 3.2 | 0.00 | 0.00 | 0.00 | 72 | 1017.6 |
| 20260506210109 | 29 | 143 | 0.0 | 3.2 | 0.00 | 0.00 | 0.00 | 71 | 1017.6 |
| 20260506205559 | 30 | 127 | 0.0 | 0.0 | 0.00 | 0.00 | 0.00 | 70 | 1017.7 |
| 20260506205059 | 30 | 127 | 0.0 | 0.0 | 0.00 | 0.00 | 0.00 | 69 | 1017.6 |
| 20260506204558 | 30 | 124 | 0.0 | 0.0 | 0.00 | 0.00 | 0.00 | 68 | 1017.4 |
| 20260506204332 | 30 | 124 | 0.0 | 0.0 | 0.00 | 0.00 | 0.00 | 66 | 1017.6 |
| 20260506203557 | 31 | 97 | 0.0 | 0.0 | 0.00 | 0.00 | 0.00 | 65 | 1017.5 |
| 20260506203326 | 31 | 96 | 0.0 | 0.0 | 0.00 | 0.00 | 0.00 | 64 | 1017.5 |
| 20260506202605 | 31 | 96 | 0.0 | 0.0 | 0.00 | 0.00 | 0.00 | 63 | 1017.6 |
| 20260506202050 | 31 | 96 | 0.0 | 0.0 | 0.00 | 0.00 | 0.00 | 63 | 1017.5 |
| 20260506201548 | 31 | 96 | 0.0 | 0.0 | 0.00 | 0.00 | 0.00 | 62 | 1017.6 |
| 20260506201325 | 32 | 96 | 0.0 | 0.0 | 0.00 | 0.00 | 0.00 | 62 | 1017.6 |
| 20260506200552 | 32 | 96 | 0.0 | 3.2 | 0.00 | 0.00 | 0.00 | 61 | 1017.7 |
| 20260506200040 | 32 | 96 | 1.6 | 4.8 | 0.00 | 0.00 | 0.00 | 60 | 1017.7 |
| 20260506195534 | 32 | 94 | 1.6 | 4.8 | 0.00 | 0.00 | 0.00 | 60 | 1017.7 |
| 20260506195029 | 32 | 92 | 1.6 | 4.8 | 0.00 | 0.00 | 0.00 | 58 | 1017.7 |
| 20260506194753 | 32 | 63 | 0.0 | 4.8 | 0.00 | 0.00 | 0.00 | 58 | 1017.7 |
| 20260506194014 | 32 | 89 | 1.6 | 4.8 | 0.00 | 0.00 | 0.00 | 58 | 1017.8 |
| 20260506193727 | 32 | 89 | 3.2 | 8.0 | 0.00 | 0.00 | 0.00 | 58 | 1017.6 |
| 20260506193003 | 32 | 77 | 3.2 | 8.0 | 0.00 | 0.00 | 0.00 | 57 | 1017.8 |
| 20260506192456 | 33 | 326 | 3.2 | 8.0 | 0.00 | 0.00 | 0.00 | 56 | 1017.9 |
| 20260506191951 | 33 | 350 | 3.2 | 8.0 | 0.00 | 0.00 | 0.00 | 56 | 1017.9 |
| 20260506191705 | 33 | 51 | 1.6 | 8.0 | 0.00 | 0.00 | 0.00 | 56 | 1017.9 |
| 20260506190938 | 33 | 120 | 3.2 | 9.7 | 0.00 | 0.00 | 0.00 | 56 | 1017.9 |
| 20260506190502 | 33 | 323 | 1.6 | 9.7 | 0.00 | 0.00 | 0.00 | 55 | 1017.9 |
| 20260506190150 | 33 | 355 | 3.2 | 9.7 | 0.00 | 0.00 | 0.00 | 56 | 1017.8 |
| 20260506185426 | 33 | 285 | 4.8 | 12.9 | 0.00 | 0.00 | 0.00 | 56 | 1017.8 |
| 20260506184914 | 33 | 319 | 3.2 | 12.9 | 0.00 | 0.00 | 0.00 | 56 | 1017.7 |
| 20260506184414 | 33 | 327 | 3.2 | 9.7 | 0.00 | 0.00 | 0.00 | 56 | 1017.7 |
| 20260506183902 | 33 | 293 | 4.8 | 12.9 | 0.00 | 0.00 | 0.00 | 56 | 1017.8 |
| 20260506183357 | 33 | 340 | 6.4 | 12.9 | 0.00 | 0.00 | 0.00 | 56 | 1017.8 |
| 20260506182850 | 33 | 214 | 4.8 | 11.3 | 0.00 | 0.00 | 0.00 | 56 | 1017.9 |
| 20260506182344 | 33 | 333 | 3.2 | 11.3 | 0.00 | 0.00 | 0.00 | 55 | 1017.9 |
| 20260506181838 | 33 | 311 | 6.4 | 19.3 | 0.00 | 0.00 | 0.00 | 56 | 1018.0 |
| 20260506181345 | 32 | 300 | 8.0 | 19.3 | 0.00 | 0.00 | 0.00 | 57 | 1018.1 |
| 20260506180827 | 32 | 322 | 11.3 | 25.7 | 0.00 | 0.00 | 0.00 | 56 | 1018.1 |
| 20260506180321 | 32 | 338 | 9.7 | 25.7 | 0.00 | 0.00 | 0.00 | 56 | 1018.1 |
| 20260506175815 | 33 | 65 | 4.8 | 14.5 | 0.00 | 0.00 | 0.00 | 56 | 1018.3 |
| 20260506175310 | 33 | 326 | 6.4 | 16.1 | 0.00 | 0.00 | 0.00 | 56 | 1018.3 |
| 20260506174808 | 33 | 292 | 8.0 | 19.3 | 0.00 | 0.00 | 0.00 | 57 | 1018.3 |
| 20260506174256 | 32 | 349 | 8.0 | 19.3 | 0.00 | 0.00 | 0.00 | 57 | 1018.4 |
| 20260506173753 | 32 | 262 | 9.7 | 22.5 | 0.00 | 0.00 | 0.00 | 56 | 1018.5 |
| 20260506173507 | 32 | 333 | 11.3 | 22.5 | 0.00 | 0.00 | 0.00 | 57 | 1018.5 |
| 20260506172738 | 32 | 175 | 9.7 | 16.1 | 0.00 | 0.00 | 0.00 | 57 | 1018.6 |
| 20260506172233 | 32 | 62 | 8.0 | 16.1 | 0.00 | 0.00 | 0.00 | 57 | 1018.6 |
| 20260506171731 | 32 | 342 | 8.0 | 14.5 | 0.00 | 0.00 | 0.00 | 58 | 1018.7 |
| 20260506171221 | 32 | 312 | 8.0 | 16.1 | 0.00 | 0.00 | 0.00 | 58 | 1018.8 |
| 20260506170715 | 32 | 300 | 8.0 | 16.1 | 0.00 | 0.00 | 0.00 | 59 | 1018.8 |